Back to catalog

STARLINK-37753

AliveCommunicationsVLEO
NORAD 100298·PAYLOAD·🇺🇸 United States

Launched Aug 11, 2026 from Cape Canaveral Space Force Station

Loading…

Next Passes (next 24 hours)

TLE

AgingSource: Space-Track

Epoch: Sep 11, 2026, 13:41 UTC

1 A0298U 26183AC  26254.57056725 -.00829037  00000-0 -58122-2 0  9996
2 A0298  53.1581 300.4790 0000704  64.0038 296.1055 15.75798045  4912

Track STARLINK-37753 in real time with AllMySat

Download on the App Store